| time (UTC) | temp F | wind direction | speed knots | gust knots | rain 1hr in | rain 24hr in | rain mn in | humidity % | barometer mb |
| 20260504043023 | 44 | 0 | 0.0 | 0.0 | 0.00 | 0.00 | 0.00 | 74 | 1016.1 |
| 20260504042002 | 44 | 0 | 0.0 | 0.0 | 0.00 | 0.00 | 0.00 | 74 | 1016.0 |
| 20260504041023 | 44 | 0 | 0.0 | 0.0 | 0.00 | 0.00 | 0.00 | 73 | 1015.9 |
| 20260504040023 | 44 | 0 | 0.0 | 0.0 | 0.00 | 0.00 | 0.00 | 73 | 1015.8 |
| 20260504035023 | 44 | 0 | 0.0 | 0.0 | 0.00 | 0.00 | 0.00 | 73 | 1016.1 |
| 20260504034003 | 45 | 0 | 0.0 | 0.0 | 0.00 | 0.00 | 0.00 | 72 | 1016.1 |
| 20260504033002 | 45 | 0 | 0.0 | 0.0 | 0.00 | 0.00 | 0.00 | 71 | 1016.1 |
| 20260504032044 | 45 | 0 | 0.0 | 0.0 | 0.00 | 0.00 | 0.00 | 71 | 1016.1 |
| 20260504031002 | 46 | 0 | 0.0 | 0.0 | 0.00 | 0.00 | 0.00 | 70 | 1015.8 |
| 20260504030002 | 46 | 0 | 0.0 | 0.0 | 0.00 | 0.00 | 0.00 | 69 | 1015.8 |
| 20260504025024 | 47 | 0 | 0.0 | 0.0 | 0.00 | 0.00 | 0.00 | 68 | 1015.7 |
| 20260504024023 | 47 | 0 | 0.0 | 0.0 | 0.00 | 0.00 | 0.00 | 67 | 1015.6 |
| 20260504023002 | 48 | 0 | 0.0 | 0.0 | 0.00 | 0.00 | 0.00 | 66 | 1015.6 |
| 20260504022002 | 48 | 0 | 0.0 | 0.0 | 0.00 | 0.00 | 0.00 | 64 | 1015.6 |
| 20260504021002 | 49 | 0 | 0.0 | 0.0 | 0.00 | 0.00 | 0.00 | 62 | 1015.6 |
| 20260504020023 | 49 | 0 | 0.0 | 0.0 | 0.00 | 0.00 | 0.00 | 62 | 1015.4 |
| 20260504015024 | 50 | 0 | 0.0 | 0.0 | 0.00 | 0.00 | 0.00 | 60 | 1015.3 |
| 20260504014002 | 51 | 0 | 0.0 | 0.0 | 0.00 | 0.00 | 0.00 | 58 | 1015.3 |
| 20260504013002 | 52 | 0 | 0.0 | 0.0 | 0.00 | 0.00 | 0.00 | 56 | 1015.2 |
| 20260504012002 | 52 | 0 | 0.0 | 0.0 | 0.00 | 0.00 | 0.00 | 55 | 1015.1 |
| 20260504011003 | 53 | 0 | 0.0 | 0.0 | 0.00 | 0.00 | 0.00 | 53 | 1015.1 |
| 20260504010002 | 54 | 0 | 0.0 | 0.0 | 0.00 | 0.00 | 0.00 | 51 | 1015.1 |
| 20260504005045 | 55 | 0 | 0.0 | 0.0 | 0.00 | 0.00 | 0.00 | 49 | 1015.1 |
| 20260504004003 | 56 | 0 | 0.0 | 0.0 | 0.00 | 0.00 | 0.00 | 49 | 1015.0 |
| 20260504003023 | 57 | 0 | 0.0 | 0.0 | 0.00 | 0.00 | 0.00 | 47 | 1014.8 |
| 20260504002002 | 58 | 0 | 0.0 | 0.0 | 0.00 | 0.00 | 0.00 | 46 | 1014.8 |
| 20260504001004 | 58 | 0 | 0.0 | 0.0 | 0.00 | 0.00 | 0.00 | 44 | 1014.8 |
| 20260504000003 | 59 | 0 | 0.0 | 0.0 | 0.00 | 0.00 | 0.00 | 41 | 1014.6 |
| 20260503235003 | 60 | 0 | 0.0 | 0.0 | 0.00 | 0.00 | 0.00 | 38 | 1014.5 |
| 20260503234002 | 61 | 0 | 0.0 | 0.0 | 0.00 | 0.00 | 0.00 | 36 | 1014.5 |
| 20260503233024 | 61 | 132 | 0.0 | 1.7 | 0.00 | 0.00 | 0.00 | 36 | 1014.5 |
| 20260503232045 | 61 | 111 | 0.0 | 0.9 | 0.00 | 0.00 | 0.00 | 35 | 1014.4 |
| 20260503231003 | 62 | 113 | 0.0 | 0.9 | 0.00 | 0.00 | 0.00 | 33 | 1014.2 |
| 20260503230024 | 62 | 61 | 0.9 | 5.2 | 0.00 | 0.00 | 0.00 | 34 | 1014.2 |
| 20260503225045 | 62 | 100 | 0.0 | 3.5 | 0.00 | 0.00 | 0.00 | 33 | 1014.1 |
| 20260503224046 | 62 | 37 | 0.9 | 4.3 | 0.00 | 0.00 | 0.00 | 32 | 1014.2 |
| 20260503223024 | 62 | 353 | 0.9 | 5.2 | 0.00 | 0.00 | 0.00 | 33 | 1014.3 |
| 20260503222045 | 62 | 358 | 0.9 | 5.2 | 0.00 | 0.00 | 0.00 | 32 | 1014.3 |
| 20260503221106 | 62 | 55 | 0.9 | 5.2 | 0.00 | 0.00 | 0.00 | 31 | 1014.3 |
| 20260503220024 | 62 | 82 | 0.9 | 5.2 | 0.00 | 0.00 | 0.00 | 32 | 1014.5 |
| 20260503215002 | 62 | 49 | 0.9 | 7.0 | 0.00 | 0.00 | 0.00 | 34 | 1014.5 |
| 20260503214024 | 62 | 105 | 0.9 | 7.0 | 0.00 | 0.00 | 0.00 | 32 | 1014.6 |
| 20260503213025 | 62 | 31 | 0.9 | 4.3 | 0.00 | 0.00 | 0.00 | 33 | 1014.6 |
| 20260503212024 | 62 | 11 | 1.7 | 6.1 | 0.00 | 0.00 | 0.00 | 32 | 1014.7 |
| 20260503211024 | 62 | 151 | 0.9 | 7.0 | 0.00 | 0.00 | 0.00 | 35 | 1014.8 |
| 20260503210003 | 62 | 69 | 1.7 | 8.7 | 0.00 | 0.00 | 0.00 | 34 | 1014.7 |
| 20260503205003 | 62 | 31 | 1.7 | 7.8 | 0.00 | 0.00 | 0.00 | 33 | 1014.7 |
| 20260503204003 | 62 | 25 | 1.7 | 8.7 | 0.00 | 0.00 | 0.00 | 32 | 1014.7 |
| 20260503203003 | 62 | 3 | 1.7 | 7.8 | 0.00 | 0.00 | 0.00 | 33 | 1014.7 |
| 20260503202106 | 63 | 126 | 0.9 | 4.3 | 0.00 | 0.00 | 0.00 | 35 | 1014.7 |
| 20260503201003 | 63 | 18 | 0.9 | 6.1 | 0.00 | 0.00 | 0.00 | 35 | 1015.0 |
| 20260503200045 | 63 | 7 | 1.7 | 8.7 | 0.00 | 0.00 | 0.00 | 32 | 1015.2 |
| 20260503195024 | 63 | 143 | 0.9 | 6.1 | 0.00 | 0.00 | 0.00 | 34 | 1015.4 |
| 20260503194024 | 62 | 89 | 0.9 | 6.1 | 0.00 | 0.00 | 0.00 | 36 | 1015.6 |
| 20260503193024 | 62 | 31 | 1.7 | 9.6 | 0.00 | 0.00 | 0.00 | 38 | 1015.6 |
| 20260503192003 | 62 | 20 | 2.6 | 13.9 | 0.00 | 0.00 | 0.00 | 35 | 1015.8 |
| 20260503191024 | 63 | 160 | 1.7 | 7.0 | 0.00 | 0.00 | 0.00 | 35 | 1015.8 |
| 20260503190045 | 62 | 56 | 1.7 | 7.8 | 0.00 | 0.00 | 0.00 | 35 | 1015.9 |
| 20260503185003 | 62 | 66 | 1.7 | 8.7 | 0.00 | 0.00 | 0.00 | 34 | 1016.1 |
| 20260503184045 | 62 | 15 | 1.7 | 9.6 | 0.00 | 0.00 | 0.00 | 35 | 1016.1 |
| 20260503183022 | 62 | 84 | 1.7 | 6.1 | 0.00 | 0.00 | 0.00 | 39 | 1016.2 |
| 20260503182000 | 61 | 19 | 2.6 | 8.7 | 0.00 | 0.00 | 0.00 | 37 | 1016.4 |
| 20260503181000 | 61 | 91 | 0.9 | 7.0 | 0.00 | 0.00 | 0.00 | 42 | 1016.4 |
| 20260503180022 | 60 | 20 | 0.9 | 5.2 | 0.00 | 0.00 | 0.00 | 39 | 1016.7 |
| 20260503175000 | 59 | 16 | 1.7 | 7.8 | 0.00 | 0.00 | 0.00 | 40 | 1016.8 |
| 20260503174000 | 59 | 13 | 2.6 | 7.8 | 0.00 | 0.00 | 0.00 | 39 | 1016.8 |
| 20260503173000 | 59 | 59 | 1.7 | 8.7 | 0.00 | 0.00 | 0.00 | 42 | 1016.7 |
| 20260503172021 | 58 | 24 | 1.7 | 7.0 | 0.00 | 0.00 | 0.00 | 45 | 1016.9 |
| 20260503171042 | 57 | 19 | 2.6 | 10.4 | 0.00 | 0.00 | 0.00 | 39 | 1016.8 |
| 20260503151001 | 53 | 47 | 0.9 | 4.3 | 0.00 | 0.00 | 0.00 | 47 | 1017.8 |
| 20260503131000 | 48 | 9 | 1.7 | 8.7 | 0.00 | 0.00 | 0.00 | 55 | 1018.0 |
| 20260503081001 | 42 | 0 | 0.0 | 0.0 | 0.00 | 0.00 | 0.00 | 71 | 1015.4 |
| 20260503072022 | 43 | 11 | 0.0 | 2.6 | 0.00 | 0.00 | 0.00 | 69 | 1014.9 |
| 20260503071001 | 44 | 36 | 0.0 | 0.9 | 0.00 | 0.00 | 0.00 | 68 | 1015.0 |
| 20260503055001 | 46 | 2 | 0.9 | 3.5 | 0.00 | 0.00 | 0.00 | 62 | 1014.7 |
| 20260503054001 | 47 | 356 | 0.9 | 2.6 | 0.00 | 0.00 | 0.00 | 62 | 1014.5 |
| 20260503053001 | 47 | 343 | 0.9 | 3.5 | 0.00 | 0.00 | 0.00 | 61 | 1014.5 |
| 20260503052043 | 47 | 360 | 0.0 | 3.5 | 0.00 | 0.00 | 0.00 | 61 | 1014.4 |
| 20260503051105 | 48 | 339 | 0.0 | 2.6 | 0.00 | 0.00 | 0.00 | 60 | 1014.5 |
| 20260503050022 | 48 | 6 | 0.0 | 2.6 | 0.00 | 0.00 | 0.00 | 59 | 1014.6 |
| 20260503045001 | 48 | 34 | 0.0 | 1.7 | 0.00 | 0.00 | 0.00 | 58 | 1014.5 |
| 20260503044022 | 49 | 1 | 0.0 | 2.6 | 0.00 | 0.00 | 0.00 | 57 | 1014.7 |